Regional Weather Roundup
Issued by NWS Charleston, SC

Current Version | Previous Version | Graphics & Text | Print | Product List | Glossary On
Versions: 1 2 3 4 5 6 7 8 9 10 11 12 13 14 15 16 17 18 19 20 21 22 23 24 25 26 27 28 29 30 31 32 33 34 35 36 37 38 39 40 41 42 43 44 45 46 47 48 49 50
307
ASUS42 KCHS 180327
RWRCHS

Regional Weather Roundup
National Weather Service Charleston SC
1000 PM EST WED JAN 17 2018

NOTE: "fair" indicates few or no clouds below 12,000 feet with no
significant weather and/or obstructions to visibility.

Not all stations are quality controlled. Use data with caution,
especially dewpoint observations.

SCZ027-030-031-034>040-042>050-180400-
...Southeast South Carolina...

CITY           SKY/WX    TMP DP  RH WIND       PRES   REMARKS
N Charleston   CLOUDY    36  25  64 NW18      30.26R WCI  26
Waterfront Prk NOT AVBL
Mount Pleasant CLOUDY    36  28  75 NW18G24   30.25R WCI  25
Johns Island   CLOUDY    36  25  64 NW22G29   30.27R WCI  24
Pinopolis        N/A     34  30  86 NW22      30.17R WCI  22
Moncks Corner  CLOUDY    32  25  74 N8        30.27R WCI  25
Summerville    CLOUDY    32  27  80 N14G20    30.29S WCI  22
Beaufort MCAS  MOCLDY    33  18  53 W10       30.30R WCI  25
Beaufort Arpt  MOCLDY    32  19  59 NW18      30.30S WCI  20
Hilton Head Is FAIR      32  14  47 VRB7G18   30.32R WCI  26
Walterboro     CLOUDY    34  28  80 NW8G16    30.31R WCI  27
Allendale      CLOUDY    32  27  80 NW8       30.32R WCI  25

...Southern Midlands and Pee Dee...

CITY           SKY/WX    TMP DP  RH WIND       PRES   REMARKS
Georgetown     CLOUDY    32  30  93 NW15G23   30.24R WCI  22
Kingstree      CLOUDY    30  25  80 NW12G22   30.27R WCI  21
Orangeburg     CLOUDY    32  26  78 NW9       30.30R WCI  24
Barnwell         N/A     32  27  80 NW9       30.34R WCI  24
Aiken          FAIR      27  19  74 NW7       30.36S WCI  19
Manning        CLOUDY    32  23  69 MISG      30.29R
Columbia       CLOUDY    31  22  69 N9G20     30.33R WCI  23
Sumter         CLOUDY    30  21  69 NW16G23   30.28R WCI  19
Florence       CLOUDY    30  24  78 NW14G25   30.26R WCI  19
Myrtle Beach   FLURRIES  33  30  88 NW16G26   30.21R WCI  23
N Myrtle Beach CLOUDY    34  32  92 NW6       30.17R WCI  29

$$

GAZ063-065-086>088-099>101-113>116-118-119-134>141-150-180400-
...Southeast Georgia...

CITY           SKY/WX    TMP DP  RH WIND       PRES   REMARKS
Savannah Arpt  FAIR      31  12  45 NW13      30.34R WCI  21
Hunter AAF     FAIR      30  11  45 NW15      30.31R WCI  19
Fort Stewart   FAIR      28  10  46 NW9       30.34R WCI  20
Statesboro     CLOUDY    31   9  40 NW10G18   30.35R WCI  22
Sylvania       CLOUDY    31  17  54 NW9       30.35R WCI  23
Claxton        MOCLDY    30  13  48 W8        30.37S WCI  22

...CSRA, Central and far Southeast Georgia...

CITY           SKY/WX    TMP DP  RH WIND       PRES   REMARKS
Thomson        FAIR      26   8  45 N7        30.41R WCI  18
Augusta-Bush   CLOUDY    32  14  47 NW10      30.35R WCI  24
Augusta-Daniel CLOUDY    32  14  47 NW8       30.34R WCI  25
Swainsboro     FAIR      28  14  54 NW10      30.37S WCI  19
Vidalia        FAIR      28  12  50 NW6       30.37S WCI  22
Eastman        FAIR      26   1  33 NW5       30.43R WCI  21
Hazlehurst     FAIR      28  -1  29 NW5       30.38S WCI  23
Alma           FAIR      28   8  43 NW12      30.38S WCI  18
Waycross       FAIR      27   6  39 NW9       30.40R WCI  18
Jesup          FAIR      30   9  40 NW9       30.38R WCI  22
Baxley         FAIR      27   9  46 NW7       30.38S WCI  19
Brunswick      FAIR      30  12  47 NW10G18   30.37R WCI  21
Saint Simons   FAIR      32  13  45 W12G23    30.35R WCI  23

$$

SCZ027-028-034-036>038-045-046-048>050-GAZ119-141-180400-
...Lake and Supplemental Coastal Observations...

STATION/POSITION TIME  TEMP    WIND        PRES    WAVE   SWELL
                       AIR SEA DIR/SP/G            HT/PER HT/PER/DIR
                 (UTC) (F)     (DEG/KT/KT) (MB)    (FT/S) (FT/S/D)
Winyah Bay       0245   34     310/ 11     1023.0R
Lake Murray      0250   27     330/  5/ 11 1026.4R
ACE Basin NERRS  0245   35     310/  4     1025.0S
Fort Pulaski     0300   32 46  310/ 19/ 23 1027.0
Sapelo Island    0300   32     320/ 15     1027.0

$$

ANZ835-935-AMZ111-154-330-350-352-354-370-450-454-472-180400-
...C-MAN and Buoy Observations...

STATION/POSITION TIME  TEMP    WIND        PRES    WAVE   SWELL
                       AIR SEA DIR/SP/G            HT/PER HT/PER/DIR
                 (UTC) (F)     (DEG/KT/KT) (MB)    (FT/S) (FT/S/D)
Buoy 41004       0310   43     310/ 25/ 33 1021.9
Buoy 41008       0250   36 51  310/ 23/ 29 1025.9R   6/ 5   2/ 70/11
Folly Beach CMAN 0300   36     300/ 12/ 17 1024.6R
Capers Nearshore 0308   34 48  320/ 17/ 25 1023.3R
Fripp Nearshore  0308   33 47  300/ 21/ 29 1025.1R


STATION/POSITION TIME  TEMP    WIND        PRES    WAVE   SWELL
                       AIR SEA DIR/SP/G            HT/PER HT/PER/DIR
                 (UTC) (F)     (DEG/KT/KT) (MB)    (FT/S) (FT/S/D)
5E St. Marys GA  0230      50                N/A     4/12   2/100/12
Frying Pan Buoy  0310   43     300/ 17/ 25 1019.7
Buoy 41025       0310   44     360/ 33/ 41 1015.2
Cape Lookout NC  0300          360/ 22/ 29 1017.8F
Buoy 41002       0250   66 70  270/ 12/ 16 1016.0F   7/12   7/ 60/12
Buoy 41010       NOT AVBL
St Augustine FL  0300   37 50  320/ 16/ 20 1027.4R


$$




USA.gov is the U.S. government's official web portal to all federal, state and local government web resources and services.